This is the latest recevied weather packets stored in our database for station/object K1AWR. If no packets are shown the sender has not sent any weather packets the latest 1 day(s).
| Time | Temp. | Humidity | Pressure | Rain* | Wind** | Luminosity | Snow |
|---|---|---|---|---|---|---|---|
| 1778018979 | 23.33° C | 50% | 1007.7 hPa | 0 mm | 1.34 m/s, 220° | 52 W/m² | - |
| 1778018676 | 23.33° C | 50% | 1007.4 hPa | 0 mm | 0.89 m/s, 255° | 65 W/m² | - |
| 1778018373 | 23.33° C | 49% | 1007.6 hPa | 0 mm | 1.34 m/s, 202° | 77 W/m² | - |
| 1778018071 | 23.89° C | 50% | 1007.7 hPa | 0 mm | 1.79 m/s, 181° | 126 W/m² | - |
| 1778017769 | 23.33° C | 49% | 1007.7 hPa | 0 mm | 1.79 m/s, 222° | 81 W/m² | - |
| 1778017467 | 23.89° C | 48% | 1007.8 hPa | 0 mm | 2.68 m/s, 143° | 82 W/m² | - |
| 1778017164 | 23.89° C | 47% | 1007.9 hPa | 0 mm | 2.68 m/s, 171° | 89 W/m² | - |
| 1778016861 | 23.89° C | 48% | 1007.9 hPa | 0 mm | 0.89 m/s, 59° | 99 W/m² | - |
| 1778016557 | 24.44° C | 47% | 1007.8 hPa | 0 mm | 0.89 m/s, 207° | 147 W/m² | - |
| 1778016254 | 24.44° C | 48% | 1007.8 hPa | 0 mm | 0.89 m/s, 191° | 255 W/m² | - |
| 1778015951 | 24.44° C | 48% | 1007.6 hPa | 0 mm | 1.34 m/s, 66° | 220 W/m² | - |
| 1778015649 | 24.44° C | 47% | 1007.5 hPa | 0 mm | 1.79 m/s, 97° | 237 W/m² | - |
| 1778015344 | 24.44° C | 47% | 1007.3 hPa | 0 mm | 1.79 m/s, 219° | 210 W/m² | - |
| 1778015042 | 25° C | 47% | 1007.5 hPa | 0 mm | 1.79 m/s, 224° | 171 W/m² | - |
| 1778014739 | 25° C | 45% | 1007.6 hPa | 0 mm | 1.79 m/s, 242° | 266 W/m² | - |
| 1778014437 | 25° C | 47% | 1007.6 hPa | 0 mm | 1.34 m/s, 254° | 229 W/m² | - |
| 1778014133 | 25.56° C | 46% | 1007.6 hPa | 0 mm | 1.34 m/s, 181° | 279 W/m² | - |
| 1778013831 | 25.56° C | 46% | 1007.5 hPa | 0 mm | 0.89 m/s, 201° | 304 W/m² | - |
| 1778013528 | 25.56° C | 46% | 1007.5 hPa | 0 mm | 2.24 m/s, 206° | 340 W/m² | - |
| 1778013224 | 25° C | 46% | 1007.5 hPa | 0 mm | 1.34 m/s, 183° | 318 W/m² | - |
| 1778012921 | 25.56° C | 46% | 1007.4 hPa | 0 mm | 0.45 m/s, 257° | 364 W/m² | - |
| 1778012617 | 25.56° C | 45% | 1007.5 hPa | 0 mm | 1.34 m/s, 174° | 365 W/m² | - |
| 1778012314 | 25.56° C | 45% | 1007.6 hPa | 0 mm | 0.89 m/s, 159° | 375 W/m² | - |
| 1778012011 | 26.11° C | 45% | 1007.6 hPa | 0 mm | 2.68 m/s, 184° | 444 W/m² | - |
| 1778011710 | 26.67° C | 46% | 1007.5 hPa | 0 mm | 0.45 m/s, 297° | 453 W/m² | - |
* Rain latest hour (hover to see other rain measurements)
** Current wind speed in m/s (hover to see current wind gust speed)